Flag for U.S.A. Weather past 2 weeks in Daly City, California, U.S.A.

Now
53 °F

Partly sunny.


Feels Like: 53 °F
Forecast: 49 / 60 °F
Wind: 3 mph from Southeast

Location: San Francisco International Airport

Current Time: Jan 30, 2015 at 9:07:16 AM

Latest Report: Jan 30, 2015 at 7:56 AM


Visibility: 10 mi

Pressure: 30.02 "Hg

Humidity: 100%

Dew point: 53 °F

Location of Daly CityLocation

Historic Weather in Daly City — Graph

°F

Daly City temperature yesterday

Maximum temperature yesterday: 65 °F (at 1:56 PM)
Minimum temperature yesterday: 50 °F (at 4:56 AM)
Average temperature yesterday: 56 °F

Past Weeks' High & Low Weather Summary

 TemperatureHumidityPressure
High68 °F (Jan 27, 1:56 PM)100% (Jan 15, 7:56 AM)30.37 "Hg (Jan 15, 7:56 AM)
Low46 °F (Jan 21, 2:56 AM)43% (Jan 21, 2:56 PM)29.96 "Hg (Jan 26, 2:56 PM)
Average55 °F85%30.18 "Hg
* Reported Jan 15 7:56 AM — Jan 30 7:56 AM, Daly City, Weather by CustomWeather, © 2014

Note: Actual official high and low records may vary slightly from our data, if they occured in-between our weather recording intervals... More about our weather records

Advertising

Daly City weather history for previous 24 hours

 ConditionsComfort  
Time TempWeatherWind HumidityBarometerVisibility
7:56 AM
Jan 30
53 °FPartly sunny.3 mph100%30.02 "Hg10 mi
6:56 AM54 °FPassing clouds.5 mph100%30.02 "Hg10 mi
5:56 AM51 °FPassing clouds.No wind100%30.02 "Hg10 mi
4:56 AM51 °FPassing clouds.No wind96%30.02 "Hg10 mi
3:56 AM50 °FPassing clouds.No wind96%30.03 "Hg10 mi
2:56 AM51 °FPassing clouds.No wind92%30.04 "Hg10 mi
1:56 AM54 °FPassing clouds.8 mph97%30.05 "Hg10 mi
12:56 AM54 °FPassing clouds.13 mph97%30.05 "Hg10 mi
11:56 PM
Jan 29
55 °FPassing clouds.14 mph96%30.07 "Hg10 mi
10:56 PM55 °FPassing clouds.17 mph96%30.07 "Hg10 mi
9:56 PM55 °FClear.12 mph93%30.06 "Hg10 mi
8:56 PM56 °FClear.14 mph90%30.07 "Hg10 mi
7:56 PM56 °FClear.16 mph93%30.08 "Hg10 mi
6:56 PM57 °FPassing clouds.14 mph87%30.08 "Hg10 mi
5:56 PM57 °FPassing clouds.16 mph93%30.07 "Hg10 mi
4:56 PM59 °FScattered clouds.16 mph87%30.06 "Hg10 mi
3:56 PM63 °FScattered clouds.10 mph65%30.07 "Hg10 mi
2:56 PM64 °FPassing clouds.14 mph68%30.07 "Hg10 mi
1:56 PM65 °FPassing clouds.No wind63%30.08 "Hg10 mi
12:56 PM62 °FPassing clouds.No wind70%30.10 "Hg9 mi
11:56 AM58 °FPassing clouds.No wind87%30.14 "Hg8 mi
10:56 AM58 °FPassing clouds.No wind81%30.16 "Hg7 mi
9:56 AM56 °FFog.No wind90%30.16 "Hg3 mi
Weather by CustomWeather, © 2014

See weather overviewHow to use our weather pages